WXM80 ListenWXM80 Stop

You find our weather info also at:

UK Metoffice

WeatherCloud

Weather Underground

Northeastern Weather Network

AWEKAS

Citizen Weather Observer Program (CWOP)

HAMweather, WeatherForYou, PWS Weather


Weather Underground History page Text

Daily Summary for April 29, 2017 Units:  Metric    English   Both
« Previous Day
Next Day »
Daily Weekly Monthly Yearly Custom
  High: Low: Average:
Temperature: 29.8 °C 17.4 °C 23.1 °C
Dew Point: 20.4 °C 10.5 °C 16.4 °C
Humidity: 89 % 49 % 67 %
Wind Speed: 16.3 km/h 0 km/h 4.8 km/h
Wind Gust: 27.8 km/h - -
Wind:- - WSW
Pressure: 1018.2 hPa 1011.4 hPa -
Precipitation: 0 mm    
Historical Graphs
 
 
Tabular Data for April 29, 2017
Time Temperature Dew Point Pressure Wind Wind Speed Wind Gust Humidity Rainfall Rate (Hourly)
00:04 18.8 °C 10.6 °C 1015.5 hPa WSW 2.1 km/h 6.4 km/h 59 % 0 mm
00:09 18.8 °C 10.6 °C 1015.8 hPa WSW 1 km/h 3.7 km/h 59 % 0 mm
00:14 18.9 °C 10.5 °C 1015.8 hPa West 5.6 km/h 13 km/h 58 % 0 mm
00:19 19.2 °C 10.7 °C 1015.8 hPa WSW 4.7 km/h 9.3 km/h 58 % 0 mm
00:29 19.4 °C 10.9 °C 1015.8 hPa SSW 2.1 km/h 9.7 km/h 58 % 0 mm
00:34 19.5 °C 10.8 °C 1015.8 hPa SW 3.7 km/h 5.6 km/h 57 % 0 mm
00:39 19.6 °C 11.1 °C 1015.8 hPa SW 2.4 km/h 3.7 km/h 58 % 0 mm
00:42 19.6 °C 11.1 °C 1015.8 hPa SW 4.2 km/h 9.3 km/h 58 % 0 mm
00:47 19.6 °C 10.8 °C 1015.8 hPa SSW 4.5 km/h 11.1 km/h 57 % 0 mm
00:52 19.6 °C 11.4 °C 1016.1 hPa SW 4.2 km/h 9.7 km/h 59 % 0 mm
00:57 19.6 °C 11.9 °C 1015.8 hPa SW 3.9 km/h 7.4 km/h 61 % 0 mm
01:02 19.7 °C 12.2 °C 1015.8 hPa WSW 5.1 km/h 11.1 km/h 62 % 0 mm
01:07 19.7 °C 12.5 °C 1016.1 hPa WSW 4.8 km/h 9.3 km/h 63 % 0 mm
01:12 19.8 °C 12.8 °C 1016.1 hPa WSW 1.9 km/h 9.3 km/h 64 % 0 mm
01:18 19.8 °C 12.8 °C 1015.8 hPa SW 1.9 km/h 5.6 km/h 64 % 0 mm
01:23 19.7 °C 12.9 °C 1015.8 hPa SW 1.4 km/h 5.6 km/h 65 % 0 mm
01:28 19.7 °C 12.9 °C 1015.5 hPa SW 1.9 km/h 3.7 km/h 65 % 0 mm
01:33 19.7 °C 13.2 °C 1015.5 hPa SSW 1.9 km/h 5.6 km/h 66 % 0 mm
01:38 19.7 °C 13.4 °C 1015.8 hPa SSW 3.4 km/h 7.4 km/h 67 % 0 mm
01:43 19.7 °C 13.4 °C 1015.8 hPa West 3.1 km/h 5.6 km/h 67 % 0 mm
01:48 19.7 °C 13.7 °C 1015.8 hPa SW 1.8 km/h 6.4 km/h 68 % 0 mm
01:53 19.8 °C 13.7 °C 1015.5 hPa WSW 1.3 km/h 3.7 km/h 68 % 0 mm
01:58 19.8 °C 14 °C 1015.5 hPa WSW 3.5 km/h 5.6 km/h 69 % 0 mm
02:03 19.9 °C 14.3 °C 1015.5 hPa WSW 1.8 km/h 5.6 km/h 70 % 0 mm
02:09 20 °C 14.3 °C 1015.5 hPa WSW 1 km/h 3.7 km/h 70 % 0 mm
02:14 20.1 °C 14.4 °C 1015.1 hPa WSW 1.6 km/h 3.2 km/h 70 % 0 mm
02:19 20.1 °C 14.7 °C 1015.1 hPa WSW 2.1 km/h 5.6 km/h 71 % 0 mm
02:24 20.2 °C 14.7 °C 1015.1 hPa WSW 1.9 km/h 3.7 km/h 71 % 0 mm
02:29 20.2 °C 14.8 °C 1015.1 hPa WSW 2.4 km/h 5.6 km/h 71 % 0 mm
02:34 20.3 °C 15.1 °C 1015.5 hPa WSW 1.4 km/h 5.6 km/h 72 % 0 mm
02:39 20.3 °C 15.1 °C 1015.5 hPa SW 3.1 km/h 7.4 km/h 72 % 0 mm
02:44 20.3 °C 15.1 °C 1015.8 hPa SW 3.2 km/h 5.6 km/h 72 % 0 mm
02:49 20.3 °C 15.1 °C 1015.8 hPa WSW 0.6 km/h 5.6 km/h 72 % 0 mm
02:54 20.3 °C 15.1 °C 1015.5 hPa SW 0.6 km/h 1.9 km/h 72 % 0 mm
02:59 20.3 °C 15.1 °C 1015.1 hPa SW 1 km/h 3.7 km/h 72 % 0 mm
03:04 20.3 °C 15.1 °C 1014.8 hPa Calm     72 % 0 mm
03:09 20.3 °C 15.3 °C 1014.4 hPa Calm     73 % 0 mm
03:15 20.2 °C 15.7 °C 1014.8 hPa SW 0.8 km/h 3.7 km/h 75 % 0 mm
03:20 20.2 °C 15.4 °C 1015.1 hPa SW 1.9 km/h 5.6 km/h 74 % 0 mm
03:25 20.1 °C 15.3 °C 1015.1 hPa Calm   1.9 km/h 74 % 0 mm
03:30 19.9 °C 15.4 °C 1015.1 hPa SW 0.2 km/h 1.9 km/h 75 % 0 mm
03:35 19.8 °C 15.3 °C 1015.1 hPa SW 1.3 km/h 3.7 km/h 75 % 0 mm
03:40 19.8 °C 15.4 °C 1015.5 hPa SW 2.1 km/h 3.7 km/h 76 % 0 mm
03:45 19.7 °C 15.3 °C 1015.5 hPa Calm   3.7 km/h 76 % 0 mm
03:50 19.6 °C 15.4 °C 1015.1 hPa SW 0.2 km/h 1.9 km/h 77 % 0 mm
03:55 19.5 °C 15.3 °C 1015.1 hPa Calm     77 % 0 mm
04:00 19.5 °C 15.3 °C 1015.1 hPa SW 2.7 km/h 5.6 km/h 77 % 0 mm
04:03 19.4 °C 15.5 °C 1015.1 hPa SW 1.1 km/h 3.7 km/h 78 % 0 mm
04:08 19.4 °C 15.7 °C 1015.1 hPa SSW 2.7 km/h 5.6 km/h 79 % 0 mm
04:13 19.4 °C 15.7 °C 1015.1 hPa SSW 2.3 km/h 5.6 km/h 79 % 0 mm
04:18 19.3 °C 15.6 °C 1015.1 hPa SW 3.5 km/h 5.6 km/h 79 % 0 mm
04:23 19.3 °C 15.6 °C 1015.1 hPa SW 1.8 km/h 4.8 km/h 79 % 0 mm
04:28 19.3 °C 15.7 °C 1015.1 hPa SW 2.4 km/h 5.6 km/h 80 % 0 mm
04:33 19.2 °C 15.7 °C 1014.8 hPa Calm     80 % 0 mm
04:35 19.2 °C 15.7 °C 1014.4 hPa SW 0.2 km/h 3.7 km/h 80 % 0 mm
04:40 19.2 °C 15.9 °C 1014.4 hPa Calm   1.9 km/h 81 % 0 mm
04:46 19.2 °C 15.9 °C 1014.4 hPa SSW 0.8 km/h 1.9 km/h 81 % 0 mm
04:51 19.2 °C 16.1 °C 1014.4 hPa SSW 1.6 km/h 3.2 km/h 82 % 0 mm
04:56 19.2 °C 16.1 °C 1014.4 hPa Calm   4.8 km/h 82 % 0 mm
05:01 19.2 °C 16.1 °C 1014.1 hPa Calm     82 % 0 mm
05:06 19.2 °C 16.1 °C 1013.8 hPa Calm   1.6 km/h 82 % 0 mm
05:11 19.2 °C 16.1 °C 1013.8 hPa Calm   1.6 km/h 82 % 0 mm
05:16 19.2 °C 16.2 °C 1013.8 hPa Calm     83 % 0 mm
05:21 19.1 °C 15.9 °C 1013.4 hPa Calm     82 % 0 mm
05:26 19.1 °C 16.1 °C 1013.8 hPa Calm   3.2 km/h 83 % 0 mm
05:31 18.9 °C 16 °C 1013.8 hPa Calm   3.2 km/h 83 % 0 mm
05:36 18.9 °C 15.9 °C 1014.1 hPa SSW 1.6 km/h 3.2 km/h 83 % 0 mm
05:41 18.8 °C 15.8 °C 1014.1 hPa SSW 3.2 km/h 6.4 km/h 83 % 0 mm
05:46 18.7 °C 15.8 °C 1014.1 hPa SSW 1.6 km/h 4.8 km/h 83 % 0 mm
05:51 18.7 °C 15.7 °C 1013.8 hPa SSW 1.6 km/h 4.8 km/h 83 % 0 mm
05:56 18.7 °C 15.9 °C 1013.4 hPa Calm     84 % 0 mm
06:01 18.7 °C 15.9 °C 1013.1 hPa Calm   1.9 km/h 84 % 0 mm
06:06 18.6 °C 16.1 °C 1012.8 hPa Calm   3.2 km/h 85 % 0 mm
06:11 18.6 °C 16.1 °C 1013.1 hPa Calm   3.2 km/h 85 % 0 mm
06:16 18.7 °C 16.3 °C 1013.8 hPa SSW 3.5 km/h 7.4 km/h 86 % 0 mm
06:21 18.6 °C 16.2 °C 1013.8 hPa SSW 4.8 km/h 9.7 km/h 86 % 0 mm
06:26 18.6 °C 16.2 °C 1013.8 hPa South 1.6 km/h 8 km/h 86 % 0 mm
06:31 18.5 °C 16.3 °C 1013.4 hPa South 1.6 km/h 6.4 km/h 87 % 0 mm
06:32 18.4 °C 16.2 °C 1013.4 hPa SSW 3.5 km/h 6.4 km/h 87 % 0 mm
06:37 18.4 °C 16.2 °C 1013.4 hPa SSW 0.6 km/h 3.7 km/h 87 % 0 mm
06:42 18.3 °C 16.1 °C 1013.4 hPa South 0.3 km/h 1.9 km/h 87 % 0 mm
06:47 18.3 °C 16.1 °C 1013.8 hPa South 0.8 km/h 1.9 km/h 87 % 0 mm
06:52 18.2 °C 16.2 °C 1013.8 hPa South 1.8 km/h 4.8 km/h 88 % 0 mm
06:57 18.2 °C 16.2 °C 1013.8 hPa WSW 3.9 km/h 9.3 km/h 88 % 0 mm
07:02 18.2 °C 16.3 °C 1013.8 hPa Calm   1.9 km/h 89 % 0 mm
07:07 18.1 °C 15.8 °C 1014.1 hPa NNW 3.9 km/h 9.3 km/h 87 % 0 mm
07:12 17.9 °C 15.7 °C 1014.1 hPa WNW 0.2 km/h 1.9 km/h 87 % 0 mm
07:17 17.8 °C 15.7 °C 1013.8 hPa WNW 1 km/h 3.7 km/h 87 % 0 mm
07:23 17.7 °C 15.6 °C 1013.8 hPa NNE 3.1 km/h 8 km/h 87 % 0 mm
07:28 17.6 °C 15 °C 1013.8 hPa NNW 2.9 km/h 7.4 km/h 85 % 0 mm
07:33 17.5 °C 14.9 °C 1013.8 hPa North 1.1 km/h 5.6 km/h 85 % 0 mm
07:38 17.4 °C 15.1 °C 1013.8 hPa NW 1.9 km/h 5.6 km/h 86 % 0 mm
07:43 17.4 °C 15.1 °C 1013.8 hPa NW 0.6 km/h 3.7 km/h 86 % 0 mm
07:44 17.4 °C 15.1 °C 1013.4 hPa Calm     86 % 0 mm
07:49 17.5 °C 15.3 °C 1013.8 hPa Calm     87 % 0 mm
07:54 17.7 °C 15.5 °C 1013.8 hPa NW 0.2 km/h 1.9 km/h 87 % 0 mm
07:59 17.8 °C 15.8 °C 1013.8 hPa NW 0.6 km/h 1.9 km/h 88 % 0 mm
08:04 18 °C 15.8 °C 1013.8 hPa Calm   1.9 km/h 87 % 0 mm
08:09 18.1 °C 15.7 °C 1013.8 hPa Calm     86 % 0 mm
08:14 18.2 °C 15.8 °C 1013.8 hPa Calm     86 % 0 mm
08:19 18.2 °C 15.7 °C 1013.8 hPa Calm   1.9 km/h 85 % 0 mm
08:25 18.3 °C 15.9 °C 1013.8 hPa Calm     86 % 0 mm
08:30 18.4 °C 16.2 °C 1013.8 hPa Calm     87 % 0 mm
08:35 18.6 °C 16.3 °C 1013.8 hPa Calm   5.6 km/h 87 % 0 mm
08:40 18.7 °C 16.5 °C 1014.1 hPa East 0.5 km/h 1.9 km/h 87 % 0 mm
08:45 18.9 °C 16.9 °C 1014.1 hPa Calm   3.7 km/h 88 % 0 mm
08:50 19.2 °C 17.1 °C 1013.8 hPa SE 2.7 km/h 5.6 km/h 88 % 0 mm
08:55 19.5 °C 17.4 °C 1014.1 hPa SSE 0.6 km/h 3.7 km/h 88 % 0 mm
09:00 19.9 °C 17.8 °C 1014.4 hPa SSW 2.1 km/h 5.6 km/h 88 % 0 mm
09:05 20.2 °C 18.1 °C 1014.8 hPa SW 2.9 km/h 7.4 km/h 88 % 0 mm
09:10 20.3 °C 18.1 °C 1014.8 hPa SW 7.7 km/h 11.1 km/h 87 % 0 mm
09:15 20.6 °C 18.3 °C 1014.8 hPa South 1.3 km/h 6.4 km/h 87 % 0 mm
09:20 20.9 °C 18.7 °C 1014.8 hPa SSW 3.1 km/h 5.6 km/h 87 % 0 mm
09:26 21.2 °C 18.8 °C 1015.1 hPa SSW 1.6 km/h 11.3 km/h 86 % 0 mm
09:31 21.7 °C 18.8 °C 1015.1 hPa SSW 4.8 km/h 19.3 km/h 84 % 0 mm
09:36 22.1 °C 19.1 °C 1015.1 hPa SSW 8 km/h 12.9 km/h 83 % 0 mm
09:41 22.4 °C 18.9 °C 1015.1 hPa SSW 11.9 km/h 16.7 km/h 81 % 0 mm
09:46 22.5 °C 18.9 °C 1014.8 hPa SSW 5.6 km/h 11.3 km/h 80 % 0 mm
09:51 22.6 °C 18.7 °C 1015.1 hPa SW 8 km/h 22.5 km/h 79 % 0 mm
09:56 22.7 °C 18.8 °C 1015.1 hPa SW 9.7 km/h 19.3 km/h 79 % 0 mm
10:01 22.8 °C 18.7 °C 1015.1 hPa SSW 12.9 km/h 16.7 km/h 78 % 0 mm
10:06 22.9 °C 18.8 °C 1014.8 hPa SW 8 km/h 22.5 km/h 78 % 0 mm
10:11 23.1 °C 19 °C 1014.8 hPa SW 11.3 km/h 19.3 km/h 78 % 0 mm
10:16 23.3 °C 19 °C 1014.8 hPa SW 9.7 km/h 19.3 km/h 77 % 0 mm
10:20 23.6 °C 19.5 °C 1014.8 hPa WSW 8.7 km/h 14.8 km/h 78 % 0 mm
10:25 23.8 °C 19.5 °C 1014.8 hPa SW 10.9 km/h 16.7 km/h 77 % 0 mm
10:31 24.1 °C 19.8 °C 1014.8 hPa SW 11.3 km/h 19.3 km/h 77 % 0 mm
10:36 24.4 °C 19.8 °C 1015.1 hPa SW 8 km/h 19.3 km/h 76 % 0 mm
10:41 24.7 °C 20.2 °C 1015.1 hPa SW 11.3 km/h 22.5 km/h 76 % 0 mm
10:46 25.2 °C 19.9 °C 1014.8 hPa WSW 9.7 km/h 24.1 km/h 73 % 0 mm
10:51 25.4 °C 20 °C 1014.8 hPa West 8.7 km/h 11.3 km/h 72 % 0 mm
10:56 25.6 °C 19.9 °C 1014.8 hPa SW 8 km/h 16.1 km/h 71 % 0 mm
11:01 25.8 °C 20.1 °C 1014.4 hPa WNW 6.3 km/h 9.3 km/h 71 % 0 mm
11:06 25.9 °C 20.1 °C 1014.4 hPa WSW 12.1 km/h 18.5 km/h 70 % 0 mm
11:11 26.2 °C 20.3 °C 1014.1 hPa WSW 6.6 km/h 14.8 km/h 70 % 0 mm
11:16 26.4 °C 20 °C 1013.8 hPa SW 8.5 km/h 13 km/h 68 % 0 mm
11:21 26.6 °C 20.4 °C 1013.4 hPa West 7.9 km/h 13 km/h 69 % 0 mm
11:26 26.8 °C 20.1 °C 1013.1 hPa WSW 5.3 km/h 11.3 km/h 67 % 0 mm
11:31 26.9 °C 20 °C 1013.4 hPa NW 5.8 km/h 9.3 km/h 66 % 0 mm
11:36 26.8 °C 19.9 °C 1012.4 hPa WNW 1.9 km/h 5.6 km/h 66 % 0 mm
11:41 26.8 °C 19.7 °C 1012.8 hPa WNW 3.4 km/h 5.6 km/h 65 % 0 mm
11:46 26.8 °C 19.9 °C 1013.1 hPa SW 9.7 km/h 14.8 km/h 66 % 0 mm
11:51 26.8 °C 19.9 °C 1013.1 hPa WSW 3.5 km/h 9.3 km/h 66 % 0 mm
11:56 26.8 °C 20.4 °C 1013.4 hPa SSW 3.5 km/h 8 km/h 68 % 0 mm
11:57 26.8 °C 20.2 °C 1013.4 hPa SSW 7.4 km/h 9.3 km/h 67 % 0 mm
12:03 26.8 °C 20.2 °C 1013.1 hPa SW 5.8 km/h 9.3 km/h 67 % 0 mm
12:08 26.7 °C 19.3 °C 1013.1 hPa WSW 8.9 km/h 11.3 km/h 64 % 0 mm
12:13 26.6 °C 19.5 °C 1013.1 hPa WSW 5.8 km/h 13 km/h 65 % 0 mm
12:18 26.6 °C 19.7 °C 1013.1 hPa WSW 7.6 km/h 13 km/h 66 % 0 mm
12:23 26.6 °C 19.7 °C 1013.1 hPa WNW 2.4 km/h 5.6 km/h 66 % 0 mm
12:28 26.6 °C 19.7 °C 1013.1 hPa SW 6.4 km/h 16.7 km/h 66 % 0 mm
12:33 26.7 °C 19.6 °C 1012.8 hPa South 3.9 km/h 9.3 km/h 65 % 0 mm
12:38 26.8 °C 19.7 °C 1012.8 hPa West 1.4 km/h 5.6 km/h 65 % 0 mm
12:43 27.1 °C 19.7 °C 1012.4 hPa SW 5.6 km/h 9.3 km/h 64 % 0 mm
12:48 27.4 °C 19.3 °C 1012.8 hPa West 10.6 km/h 18.5 km/h 61 % 0 mm
12:53 27.8 °C 19.3 °C 1012.8 hPa WSW 13.4 km/h 16.7 km/h 60 % 0 mm
12:58 28.1 °C 18.8 °C 1012.8 hPa WSW 9.3 km/h 18.5 km/h 57 % 0 mm
13:03 28.4 °C 19.6 °C 1012.4 hPa WSW 3.4 km/h 9.3 km/h 59 % 0 mm
13:09 28.7 °C 19.1 °C 1012.1 hPa WNW 7.1 km/h 13 km/h 56 % 0 mm
13:14 28.9 °C 18.9 °C 1012.1 hPa SSW 7.1 km/h 18.5 km/h 55 % 0 mm
13:19 29.1 °C 18.8 °C 1012.1 hPa SW 6.1 km/h 16.7 km/h 54 % 0 mm
13:24 29.2 °C 18.6 °C 1011.7 hPa West 6.6 km/h 11.1 km/h 53 % 0 mm
13:29 29.3 °C 18.7 °C 1011.7 hPa WSW 4.2 km/h 9.7 km/h 53 % 0 mm
13:34 29.4 °C 19.1 °C 1011.7 hPa WSW 7.4 km/h 13 km/h 54 % 0 mm
13:39 29.5 °C 19.2 °C 1011.4 hPa WSW 3.5 km/h 7.4 km/h 54 % 0 mm
13:44 29.6 °C 18.7 °C 1011.7 hPa West 5.1 km/h 9.7 km/h 52 % 0 mm
13:49 29.7 °C 18.8 °C 1012.1 hPa West 12.6 km/h 19.3 km/h 52 % 0 mm
13:54 29.6 °C 18.4 °C 1012.1 hPa WSW 13 km/h 24.1 km/h 51 % 0 mm
13:59 29.4 °C 18.5 °C 1012.1 hPa WSW 7.1 km/h 16.7 km/h 52 % 0 mm
14:05 29.3 °C 18.8 °C 1011.7 hPa West 6.1 km/h 13 km/h 53 % 0 mm
14:10 29.3 °C 18.4 °C 1011.7 hPa WSW 10.1 km/h 16.7 km/h 52 % 0 mm
14:15 29.3 °C 18.4 °C 1012.1 hPa West 10.6 km/h 18.5 km/h 52 % 0 mm
14:20 29.3 °C 19 °C 1012.1 hPa WNW 3.4 km/h 6.4 km/h 54 % 0 mm
14:25 29.3 °C 18.7 °C 1011.7 hPa WSW 8.5 km/h 14.8 km/h 53 % 0 mm
14:30 29.3 °C 18.8 °C 1011.7 hPa WSW 8.5 km/h 14.8 km/h 53 % 0 mm
14:35 29.4 °C 18.9 °C 1011.7 hPa WSW 8.9 km/h 18.5 km/h 53 % 0 mm
14:40 29.6 °C 18.3 °C 1012.1 hPa SW 14 km/h 25.9 km/h 51 % 0 mm
14:45 29.7 °C 18.4 °C 1012.4 hPa WSW 9 km/h 14.8 km/h 51 % 0 mm
14:50 29.8 °C 18.9 °C 1012.4 hPa WSW 10 km/h 20.4 km/h 52 % 0 mm
14:55 29.7 °C 18.5 °C 1012.4 hPa WNW 12.4 km/h 22.2 km/h 51 % 0 mm
14:56 29.7 °C 18.5 °C 1012.4 hPa West 11.4 km/h 18.5 km/h 51 % 0 mm
15:01 29.7 °C 18.5 °C 1012.4 hPa SW 13.8 km/h 20.4 km/h 51 % 0 mm
15:06 29.6 °C 18.7 °C 1012.4 hPa WSW 9.7 km/h 16.7 km/h 52 % 0 mm
15:11 29.6 °C 18.7 °C 1012.4 hPa SW 10.5 km/h 18.5 km/h 52 % 0 mm
15:16 29.6 °C 18.7 °C 1012.4 hPa SW 11.3 km/h 13 km/h 52 % 0 mm
15:21 29.7 °C 18.8 °C 1012.4 hPa WSW 7.7 km/h 20.4 km/h 52 % 0 mm
15:26 29.7 °C 18.5 °C 1012.8 hPa West 16.3 km/h 24.1 km/h 51 % 0 mm
15:31 29.7 °C 18.5 °C 1012.4 hPa SW 14.2 km/h 16.7 km/h 51 % 0 mm
15:37 29.8 °C 18.6 °C 1012.1 hPa WSW 15.3 km/h 27.8 km/h 51 % 0 mm
15:42 29.7 °C 17.9 °C 1012.4 hPa WNW 13.8 km/h 25.9 km/h 49 % 0 mm
15:47 29.7 °C 17.8 °C 1012.4 hPa WNW 10.1 km/h 22.2 km/h 49 % 0 mm
15:48 29.7 °C 18.4 °C 1012.4 hPa WNW 9.5 km/h 12.9 km/h 51 % 0 mm
15:54 29.7 °C 18.2 °C 1012.4 hPa West 10.9 km/h 18.5 km/h 50 % 0 mm
15:59 29.7 °C 18.1 °C 1012.4 hPa WSW 7.9 km/h 18.5 km/h 50 % 0 mm
16:04 29.6 °C 17.7 °C 1012.4 hPa SSW 12.7 km/h 27.8 km/h 49 % 0 mm
16:09 29.3 °C 17.5 °C 1012.4 hPa West 10.6 km/h 18.5 km/h 49 % 0 mm
16:14 29.3 °C 17.8 °C 1012.4 hPa WSW 5.8 km/h 14.8 km/h 50 % 0 mm
16:19 29.3 °C 17.4 °C 1012.4 hPa WSW 9.5 km/h 18.5 km/h 49 % 0 mm
16:24 29.1 °C 17.6 °C 1012.4 hPa SW 11.1 km/h 18.5 km/h 50 % 0 mm
16:29 29.1 °C 17.9 °C 1012.8 hPa West 6.4 km/h 14.8 km/h 51 % 0 mm
16:34 28.9 °C 17.5 °C 1013.1 hPa SSW 10.6 km/h 16.7 km/h 50 % 0 mm
16:39 28.8 °C 17.7 °C 1013.1 hPa WSW 9.3 km/h 14.5 km/h 51 % 0 mm
16:44 28.8 °C 17.6 °C 1013.1 hPa WSW 7.7 km/h 11.1 km/h 51 % 0 mm
16:49 28.7 °C 17.8 °C 1013.1 hPa SW 4.2 km/h 11.1 km/h 52 % 0 mm
16:54 28.6 °C 17.7 °C 1013.1 hPa ENE 7.2 km/h 14.8 km/h 52 % 0 mm
16:59 28.4 °C 17.9 °C 1013.1 hPa WNW 8.4 km/h 18.5 km/h 53 % 0 mm
17:04 28.4 °C 18.2 °C 1013.1 hPa SW 2.7 km/h 5.6 km/h 54 % 0 mm
17:10 28.4 °C 18.2 °C 1013.1 hPa SW 4 km/h 6.4 km/h 54 % 0 mm
17:15 28.4 °C 17.9 °C 1013.1 hPa WSW 2.7 km/h 14.8 km/h 53 % 0 mm
17:20 28.4 °C 17.9 °C 1013.1 hPa SSW 4.3 km/h 7.4 km/h 53 % 0 mm
17:25 28.4 °C 17.9 °C 1013.1 hPa WSW 3.5 km/h 16.7 km/h 53 % 0 mm
17:30 28.2 °C 17.7 °C 1013.4 hPa SW 8 km/h 11.3 km/h 53 % 0 mm
17:35 28.1 °C 17.6 °C 1013.4 hPa WSW 4.3 km/h 7.4 km/h 53 % 0 mm
17:40 27.9 °C 18.1 °C 1013.4 hPa West 3.9 km/h 7.4 km/h 55 % 0 mm
17:45 27.9 °C 17.7 °C 1013.4 hPa WNW 5.8 km/h 13 km/h 54 % 0 mm
17:50 27.8 °C 17.7 °C 1013.1 hPa WSW 5.8 km/h 14.8 km/h 54 % 0 mm
17:55 27.7 °C 16.9 °C 1013.1 hPa NW 6 km/h 9.7 km/h 52 % 0 mm
18:01 27.6 °C 16.8 °C 1012.8 hPa WNW 6.9 km/h 11.3 km/h 52 % 0 mm
18:06 27.4 °C 16.7 °C 1012.8 hPa West 4.8 km/h 11.3 km/h 52 % 0 mm
18:11 27.2 °C 16.8 °C 1012.8 hPa WNW 4.7 km/h 9.3 km/h 53 % 0 mm
18:16 26.9 °C 16.6 °C 1012.8 hPa West 8.9 km/h 14.8 km/h 53 % 0 mm
18:21 26.8 °C 16.4 °C 1012.8 hPa West 9.7 km/h 19.3 km/h 53 % 0 mm
18:26 26.7 °C 16.6 °C 1013.1 hPa WNW 8 km/h 19.3 km/h 54 % 0 mm
18:31 26.5 °C 16.1 °C 1013.1 hPa WNW 3.2 km/h 14.5 km/h 53 % 0 mm
18:36 26.3 °C 15.9 °C 1013.1 hPa WNW 5.8 km/h 16.7 km/h 53 % 0 mm
18:41 26.1 °C 16.1 °C 1013.1 hPa WNW 8 km/h 19.3 km/h 54 % 0 mm
18:46 25.9 °C 16.2 °C 1012.8 hPa WNW 4.8 km/h 19.3 km/h 55 % 0 mm
18:51 25.8 °C 16.1 °C 1012.8 hPa WNW 4.8 km/h 16.1 km/h 55 % 0 mm
18:56 25.6 °C 16.2 °C 1012.8 hPa WNW 4.8 km/h 19.3 km/h 56 % 0 mm
19:01 25.4 °C 16.3 °C 1013.1 hPa WNW 6.4 km/h 19.3 km/h 57 % 0 mm
19:06 25.3 °C 16.2 °C 1013.1 hPa West 7.4 km/h 13 km/h 57 % 0 mm
19:11 25.2 °C 16.1 °C 1013.1 hPa NW 8.2 km/h 18.5 km/h 57 % 0 mm
19:16 25.1 °C 16.2 °C 1013.4 hPa NNW 7.6 km/h 14.8 km/h 58 % 0 mm
19:21 24.9 °C 16.1 °C 1013.4 hPa West 9.3 km/h 13 km/h 58 % 0 mm
19:26 24.8 °C 16 °C 1013.4 hPa WNW 3.9 km/h 7.4 km/h 58 % 0 mm
19:31 24.7 °C 16.2 °C 1013.4 hPa West 5.1 km/h 7.4 km/h 59 % 0 mm
19:36 24.6 °C 16.1 °C 1013.4 hPa West 5.3 km/h 7.4 km/h 59 % 0 mm
19:41 24.6 °C 16.3 °C 1013.8 hPa NW 5.6 km/h 11.1 km/h 60 % 0 mm
19:46 24.5 °C 16.2 °C 1013.8 hPa West 3.9 km/h 11.3 km/h 60 % 0 mm
19:51 24.4 °C 16.2 °C 1014.1 hPa WNW 1.3 km/h 5.6 km/h 60 % 0 mm
19:57 24.3 °C 16.1 °C 1014.1 hPa WSW 6 km/h 9.3 km/h 60 % 0 mm
20:02 24.3 °C 16.3 °C 1014.4 hPa Calm   5.6 km/h 61 % 0 mm
20:07 24.2 °C 16.2 °C 1014.1 hPa West 0.5 km/h 5.6 km/h 61 % 0 mm
20:12 24.1 °C 16.1 °C 1014.4 hPa West 2.7 km/h 11.1 km/h 61 % 0 mm
20:17 24 °C 16 °C 1014.4 hPa WNW 1.8 km/h 5.6 km/h 61 % 0 mm
20:22 23.9 °C 15.9 °C 1014.8 hPa West 7.7 km/h 14.8 km/h 61 % 0 mm
20:27 23.9 °C 15.9 °C 1015.1 hPa West 3.2 km/h 6.4 km/h 61 % 0 mm
20:32 23.9 °C 15.9 °C 1015.1 hPa WNW 3.5 km/h 6.4 km/h 61 % 0 mm
20:37 23.8 °C 16.1 °C 1015.1 hPa WNW 7.1 km/h 13 km/h 62 % 0 mm
20:42 23.8 °C 16.1 °C 1015.1 hPa WNW 6.4 km/h 13 km/h 62 % 0 mm
20:47 23.7 °C 15.8 °C 1015.5 hPa WSW 6.1 km/h 9.3 km/h 61 % 0 mm
20:52 23.7 °C 15.7 °C 1015.5 hPa West 4.8 km/h 7.4 km/h 61 % 0 mm
20:58 23.6 °C 15.7 °C 1015.8 hPa WNW 7.4 km/h 14.5 km/h 61 % 0 mm
21:03 23.6 °C 15.6 °C 1015.8 hPa NW 7.4 km/h 13 km/h 61 % 0 mm
21:08 23.4 °C 15.5 °C 1015.8 hPa WNW 6.1 km/h 14.8 km/h 61 % 0 mm
21:13 23.3 °C 15.7 °C 1016.1 hPa NNW 0.2 km/h 1.9 km/h 62 % 0 mm
21:18 23.2 °C 15.6 °C 1016.5 hPa WNW 2.4 km/h 5.6 km/h 62 % 0 mm
21:23 22.9 °C 15 °C 1016.5 hPa West 8.4 km/h 20.4 km/h 61 % 0 mm
21:28 22.6 °C 14.9 °C 1016.5 hPa WNW 9 km/h 13 km/h 62 % 0 mm
21:33 22.3 °C 14.4 °C 1016.5 hPa West 8.9 km/h 18.5 km/h 61 % 0 mm
21:38 22.1 °C 14.5 °C 1016.8 hPa WNW 4 km/h 11.1 km/h 62 % 0 mm
21:43 21.8 °C 14.2 °C 1017.2 hPa North 4.3 km/h 7.4 km/h 62 % 0 mm
21:49 21.4 °C 14.1 °C 1017.2 hPa NNW 4.2 km/h 18.5 km/h 63 % 0 mm
21:54 21 °C 13.9 °C 1017.2 hPa NW 3.2 km/h 11.3 km/h 64 % 0 mm
21:59 20.7 °C 13.9 °C 1017.5 hPa NW 6 km/h 11.1 km/h 65 % 0 mm
22:04 20.4 °C 13.8 °C 1017.5 hPa NW 8.9 km/h 18.5 km/h 66 % 0 mm
22:09 20.2 °C 13.6 °C 1017.5 hPa West 9 km/h 14.8 km/h 66 % 0 mm
22:14 20 °C 13.7 °C 1017.5 hPa WNW 9.2 km/h 19.3 km/h 67 % 0 mm
22:19 19.9 °C 13.6 °C 1017.5 hPa WNW 9 km/h 20.4 km/h 67 % 0 mm
22:24 19.9 °C 13.6 °C 1017.5 hPa WNW 4.8 km/h 6.4 km/h 67 % 0 mm
22:29 19.9 °C 13.6 °C 1017.5 hPa WNW 4.7 km/h 14.8 km/h 67 % 0 mm
22:31 19.9 °C 13.6 °C 1017.5 hPa SSW 7.6 km/h 11.1 km/h 67 % 0 mm
22:36 19.9 °C 13.8 °C 1017.5 hPa West 6 km/h 12.9 km/h 68 % 0 mm
22:41 19.8 °C 13.5 °C 1017.5 hPa West 5 km/h 11.1 km/h 67 % 0 mm
22:46 19.8 °C 13.8 °C 1017.5 hPa WNW 1.3 km/h 6.4 km/h 68 % 0 mm
22:51 19.8 °C 13.7 °C 1017.8 hPa West 4.8 km/h 9.3 km/h 68 % 0 mm
22:56 19.8 °C 13.7 °C 1017.5 hPa West 0.2 km/h 7.4 km/h 68 % 0 mm
23:02 19.8 °C 13.7 °C 1017.5 hPa WNW 1.4 km/h 5.6 km/h 68 % 0 mm
23:07 19.8 °C 13.7 °C 1017.5 hPa West 5.5 km/h 13 km/h 68 % 0 mm
23:12 19.8 °C 13.9 °C 1017.5 hPa West 5.1 km/h 9.3 km/h 69 % 0 mm
23:17 19.7 °C 13.9 °C 1017.8 hPa West 1.6 km/h 8 km/h 69 % 0 mm
23:22 19.7 °C 13.7 °C 1017.8 hPa West 4.8 km/h 9.3 km/h 68 % 0 mm
23:27 19.7 °C 13.7 °C 1017.5 hPa WNW 6.3 km/h 11.1 km/h 68 % 0 mm
23:28 19.7 °C 13.7 °C 1017.8 hPa NW 6 km/h 13 km/h 68 % 0 mm
23:33 19.7 °C 13.8 °C 1017.5 hPa WNW 6.3 km/h 12.9 km/h 69 % 0 mm
23:38 19.7 °C 13.8 °C 1017.8 hPa WNW 3.9 km/h 7.4 km/h 69 % 0 mm
23:43 19.7 °C 13.8 °C 1017.8 hPa WNW 3.5 km/h 6.4 km/h 69 % 0 mm
23:48 19.6 °C 13.8 °C 1017.8 hPa WNW 4.7 km/h 11.1 km/h 69 % 0 mm
23:53 19.6 °C 13.7 °C 1017.8 hPa West 4 km/h 7.4 km/h 69 % 0 mm
23:59 19.6 °C 13.7 °C 1018.2 hPa WNW 6.9 km/h 13 km/h 69 % 0 mm
Crab Meadow Weather
Compliments of Weather Underground - 3 mb

Script developed by  Jim McMurry - jmcmurry@mwt.net Adapted for the template by  Wim van der Kuil - Leuven-Template.eu

Recycling: The U.S. is the #1 trash-producing country in the world at 1,609 pounds per person per year. This means that 5% of the world's people generate 40% of the world's waste.